| time (UTC) | temp C | wind direction | speed KPH | gust KPH | rain 1hr cm | rain 24hr cm | rain mn cm | humidity % | barometer mb |
| 20260504213005 | 15 | 198 | 1.6 | 3.2 | 0.00 | 0.00 | 0.00 | 34 | 1015.6 |
| 20260504212004 | 16 | 225 | 0.0 | 3.2 | 0.00 | 0.00 | 0.00 | 33 | 1015.6 |
| 20260504211005 | 16 | 200 | 1.6 | 6.4 | 0.00 | 0.00 | 0.00 | 31 | 1015.5 |
| 20260504210004 | 16 | 185 | 4.8 | 8.0 | 0.00 | 0.00 | 0.00 | 31 | 1015.6 |
| 20260504203005 | 15 | 135 | 0.0 | 3.2 | 0.00 | 0.00 | 0.00 | 32 | 1015.4 |
| 20260504202004 | 16 | 139 | 1.6 | 3.2 | 0.00 | 0.00 | 0.00 | 31 | 1015.6 |
| 20260504201004 | 16 | 181 | 1.6 | 3.2 | 0.00 | 0.00 | 0.00 | 30 | 1015.4 |
| 20260504200005 | 16 | 181 | 1.6 | 3.2 | 0.00 | 0.00 | 0.00 | 30 | 1015.1 |
| 20260504195005 | 17 | 181 | 0.0 | 3.2 | 0.00 | 0.00 | 0.00 | 28 | 1015.3 |
| 20260504194005 | 18 | 181 | 0.0 | 6.4 | 0.00 | 0.00 | 0.00 | 28 | 1015.3 |
| 20260504193005 | 18 | 178 | 3.2 | 6.4 | 0.00 | 0.00 | 0.00 | 28 | 1015.3 |
| 20260504192004 | 18 | 176 | 3.2 | 8.0 | 0.00 | 0.00 | 0.00 | 28 | 1015.2 |
| 20260504191004 | 19 | 144 | 3.2 | 4.8 | 0.00 | 0.00 | 0.00 | 28 | 1015.1 |
| 20260504190005 | 20 | 149 | 3.2 | 6.4 | 0.00 | 0.00 | 0.00 | 27 | 1015.4 |
| 20260504185005 | 20 | 156 | 3.2 | 6.4 | 0.00 | 0.00 | 0.00 | 25 | 1015.2 |
| 20260504184004 | 20 | 162 | 3.2 | 6.4 | 0.00 | 0.00 | 0.00 | 24 | 1015.1 |
| 20260504183005 | 20 | 181 | 3.2 | 6.4 | 0.00 | 0.00 | 0.00 | 23 | 1015.4 |
| 20260504182004 | 21 | 169 | 0.0 | 4.8 | 0.00 | 0.00 | 0.00 | 21 | 1015.1 |
| 20260504181004 | 22 | 181 | 0.0 | 3.2 | 0.00 | 0.00 | 0.00 | 19 | 1015.0 |
| 20260504180004 | 23 | 181 | 3.2 | 3.2 | 0.00 | 0.00 | 0.00 | 19 | 1015.2 |
| 20260504174005 | 26 | 125 | 4.8 | 8.0 | 0.00 | 0.00 | 0.00 | 10 | 1014.9 |
| 20260504173005 | 28 | 135 | 3.2 | 3.2 | 0.00 | 0.00 | 0.00 | 12 | 1014.8 |
| 20260504172004 | 31 | 135 | 0.0 | 1.6 | 0.00 | 0.00 | 0.00 | 10 | 1014.7 |
| 20260504171004 | 33 | 270 | 0.0 | 1.6 | 0.00 | 0.00 | 0.00 | 12 | 1014.7 |
| 20260504151004 | 35 | 279 | 3.2 | 11.3 | 0.00 | 0.00 | 0.00 | 11 | 1015.3 |
| 20260504082003 | 24 | 190 | 9.7 | 17.7 | 0.00 | 0.00 | 0.00 | 17 | 1019.4 |
| 20260504081003 | 24 | 164 | 14.5 | 17.7 | 0.00 | 0.00 | 0.00 | 21 | 1019.4 |